www.pogodaiklimat.ru

Погода и климат >> Архив погоды >> Индия >> Keongjhargarh


ПОГОДА в Keongjhargarh

  • Прогноз погоды в Keongjhargarh
  • Монитор погоды в Keongjhargarh
  • Климат города

АРХИВ ПОГОДЫ в Keongjhargarh

Время (UTC), дата Ветер
(напр.,м/с)
 
Видим.   Явления Облачность Т
(С)
Тd
(С)
f
(%)
Тe
(С)
Тes
(С)
Комфортность P
(гПа)
Po
(гПа)
Тmin
(С)
Tmax
(С)
R
(мм)
R24
(мм)
S
(см)
06 13.01 С 1 4000 м ясно +25.0 +3.8 25 +24 +39 комфорт 1014.2 1014.0
09 13.01 СЗ 1 4000 м ясно +27.6 +5.4 24 +27 +34 жарко 1011.2 1011.0
12 13.01 штиль 0 4000 м ясно +23.4 +8.8 39 +25 +25 комфорт 1012.3 1012.0 +27.7
03 14.01 штиль 0 4000 м ясно +16.0 +6.3 53 +16 +22 1018.5 1019.0 +10.2
06 14.01 С 2 4000 м ясно +22.2 +1.9 26 +22 +35 комфорт 1016.6 1017.0
09 14.01 СЗ 2 4000 м ясно +25.4 +3.3 24 +24 +31 комфорт 1013.0 1013.0
12 14.01 штиль 0 4000 м ясно +21.2 +6.6 39 +22 +22 комфорт 1014.1 1014.0 +25.6
03 15.01 штиль 0 4000 м ясно +18.0 +3.9 39 +18 +24 1017.8 1018.0 +9.4
06 15.01 СЗ 1 4000 м ясно +24.2 +3.6 26 +24 +38 комфорт 1015.3 1015.0
09 15.01 СЗ 1 4000 м ясно +26.6 +1.6 20 +25 +32 комфорт 1011.2 1011.0
12 15.01 штиль 0 4000 м ясно +22.2 +12.8 55 +25 +25 комфорт 1012.3 1012.0 +27.8
03 16.01 штиль 0 4000 м ясно +16.6 +5.6 48 +17 +22 1017.4 1017.0 +9.1
06 16.01 штиль 0 4000 м ясно +24.0 +4.4 28 +24 +40 комфорт 1015.5 1016.0
09 16.01 С 1 4000 м ясно +26.0 +4.4 25 +25 +33 комфорт 1011.0 1011.0
12 16.01 штиль 0 4000 м ясно +21.0 +4.1 33 +21 +21 комфорт 1012.0 1012.0 +26.6
03 17.01 штиль 0 4000 м ясно +14.0 +6.1 59 +14 +20 1017.9 1018.0 +8.4
06 17.01 С 2 4000 м ясно +23.4 +4.6 29 +23 +37 комфорт 1015.5 1016.0
09 17.01 штиль 0 4000 м ясно +26.6 +2.3 21 +25 +34 комфорт 1011.5 1012.0
12 17.01 штиль 0 4000 м ясно +22.8 +4.2 30 +23 +23 комфорт 1012.8 1013.0 +27.1
03 18.01 штиль 0 4000 м ясно +15.0 +3.9 47 +15 +21 1017.6 1018.0 +7.9
06 18.01 штиль 0 4000 м ясно +23.4 +5.2 31 +24 +40 комфорт 1015.8 1016.0
09 18.01 СЗ 1 4000 м ясно +26.2 +6.4 28 +26 +34 жарко 1012.1 1012.0
12 18.01 штиль 0 4000 м ясно +23.0 +8.7 40 +24 +24 комфорт 1012.6 1013.0 +26.6
03 19.01 штиль 0 4000 м ясно +15.4 +4.4 48 +15 +21 1018.2 1018.0 +7.6
06 19.01 С 1 4000 м ясно +22.8 +4.7 31 +23 +39 комфорт 1016.3 1016.0
09 19.01 СЗ 1 4000 м ясно +25.6 +4.8 26 +25 +33 комфорт 1013.2 1013.0
12 19.01 штиль 0 4000 м ясно +22.2 +9.9 46 +24 +24 комфорт 1013.8 1014.0 +26.7

 

Местоположение метеостанции Keongjhargarh (Orissa, Индия): широта 21.62 долгота 85.52 высота над уровнем моря 463 м.

В архиве по умолчанию представлена погода в Keongjhargarh за последнюю неделю. Архивные данные за месяц целиком и за предыдущие месяцы, начиная с января 2011 года, Вы можете получить, выбрав интересующий диапазон дат из раскрывающегося списка и нажав кнопку "Ввод!".

Внимание! Время в таблицах - всемирное. Для получения местного времени необходимо прибавить поправку, которая в Keongjhargarh равна 5.5 ч.

Смотрите также архив погоды в соседних городах и на ближайших метеорологических станциях:

Погода в Angul (Orissa, Индия) (98 км)
Погода в Chaibasa (Jharkhand, Индия) (108 км)
Погода в Baripada (Orissa, Индия) (134 км)
Погода в Cuttack (Orissa, Индия) (135 км)
Погода в Balasore (Orissa, Индия) (146 км)
Погода в Jamshedpur (Jharkhand, Индия) (150 км)
Погода в Jharsuguda (Orissa, Индия) (152 км)
Погода в Bhubaneswar (Orissa, Индия) (156 км)
Погода в Chandbali (Orissa, Индия) (156 км)
Погода в Sambalpur (Orissa, Индия) (161 км)

Пояснения к столбцам:

Ветер - указаны скорость ветра в м/с - средняя за 10 мин, порывы в срок и между сроками (в фигурных скобках) и направление, откуда дует ветер: С - северный, СВ - северо-восточный, В - восточный, ЮВ - юго-восточный, Ю - южный, ЮЗ - юго-западный, З - западный, СЗ - северо-западный.
Видимость - горизонтальная дальность видимости в метрах или километрах. При видимости от 1 до 10 км при отсутствии осадков обычно наблюдается дымка, при ухудшении видимости до 1 км и менее - туман. В сухую погоду видимость может ухудшаться дымом, пылью или мглою.
Явления - указаны атмосферные явления, наблюдавшиеся в срок или в последний час перед сроком; фигурными скобками обозначены явления, наблюдавшиеся между сроками (за 1-3 часа до срока); квадратными скобками обозначены град или гололедные отложения с указанием их диаметра в мм.
Облачность - указаны через наклонную черту общая и нижняя облачность в баллах и высота нижней границы облаков в метрах; квадратными скобками обозначены формы облаков: Ci - перистые, Cs - перисто-слоистые, Cc - перисто-кучевые, Ac - высококучевые, As - высокослоистые, Sc - слоисто-кучевые, Ns - слоисто-дождевые, Cu - кучевые, Cb - кучево-дождевые. Подробнее классификацию облаков см. в Атласе облаков (PDF).
T - Температура воздуха - температура, измеренная на высоте 2 м над землей.
Td - Температура точки росы - температура, при понижении до которой содержащийся в воздухе водяной пар достигнет насыщения.
f - Относительная влажность воздуха - влажноcть воздуха, измеренная на высоте 2 м над землей.
Te - Эффективная температура - температура, которую ощущает одетый по сезону человек в тени. Характеристика душности погоды. При расчете учитывается влияние влажности воздуха и скорости ветра на теплоощущения человека.
Tes - Эффективная температура на солнце - температура, которую ощущает человек, с поправкой на солнечный нагрев. Характеристика знойности погоды. Зависит от высоты солнца над горизонтом, облачности и скорости ветра. Ночью, в пасмурную погоду, а также при ветре 12 м/с и более поправка равна нулю.
P - Атмосферное давление - приведенное к уровню моря атмосферное давление.
Po - Атмосферное давление - измеренное на уровне метеостанции атмосферное давление.
Tmin - Минимальная температура - минимум температуры воздуха на высоте 2 м над землей.
Tmax - Максимальная температура - максимум температуры воздуха на высоте 2 м над землей.
R - Количество осадков - Количество выпавших осадков за период времени, мм. При наведении курсора мыши на число - период времени, за который выпало указанное количество осадков.
R24 - Количество осадков - Количество выпавших осадков за 24 часа, мм.
S - Снежный покров - Высота снежного покрова, см. При наведении курсора мыши на число - состояние снежного покрова и степень покрытия местности в баллах.